This demonstration page uses our WeatherBlox Daily Observations layout. Learn more.

Left ArrowRight Arrow

41.12389, -100.76542

Hourly Observations for September 22, 2016

Temp ( °F °C ) Dew Point ( °F °C ) Humidity (%) Winds ( mph kmh ) Pressure ( in mb ) Visibility ( mi km ) Precip ( " mm )
12:53 am 00:53 Clear 64 17.8 58 14.4 81 81 N 12 19 29.84 1011 10 16 0.00 0.00
1:53 am 01:53 Clear 64 17.8 58 14.4 81 81 N 13 20 29.84 1011 10 16 0.00 0.00
2:53 am 02:53 Clear 63 17.2 59 15 87 87 NNE 13 20 29.84 1011 10 16 0.00 0.00
3:13 am 03:13 Partly Cloudy 63 17 59 15 88 88 N 13 20 29.85 1011 10 16 0.00 0.00
3:24 am 03:24 Mostly Cloudy 64 17.8 60 15.6 87 87 NNE 18 30 29.85 1011 9 14 0.00 0.00
3:53 am 03:53 Cloudy 65 18.3 60 15.6 84 84 NNE 21 33 29.85 1011 9 14 0.00 0.00
4:53 am 04:53 Cloudy 65 18.3 61 16.1 87 87 NNE 13 20 29.85 1011 9 14 0.00 0.00
5:53 am 05:53 Cloudy 66 18.9 61 16.1 84 84 N 7 11 29.87 1012 9 14 0.00 0.00
6:53 am 06:53 Cloudy 65 18.3 60 15.6 84 84 N 8 13 29.88 1012 10 16 0.00 0.00
7:04 am 07:04 Cloudy 66 19 61 16 83 83 N 7 11 29.88 1012 10 16 0.00 0.00
7:32 am 07:32 Cloudy 64 18 61 16 88 88 N 12 19 29.88 1012 10 16 0.00 0.00
7:53 am 07:53 Cloudy 65 18.3 60 15.6 84 84 NNE 9 15 29.89 1012 10 16 0.00 0.00
8:53 am 08:53 Cloudy 66 18.9 59 15 78 78 NNE 9 15 29.90 1013 10 16 0.00 0.00
9:22 am 09:22 Cloudy 66 19 59 15 78 78 NNE 13 20 29.88 1012 10 16 0.00 0.00
9:39 am 09:39 Cloudy 67 19.4 59 15 76 76 NNE 10 17 29.85 1011 10 16 0.00 0.00
9:53 am 09:53 Cloudy 68 20 60 15.6 76 76 NNE 10 17 29.91 1013 10 16 0.00 0.00
10:11 am 10:11 Cloudy 68 20 59 15 73 73 NNE 13 20 29.85 1011 10 16 0.00 0.00
10:53 am 10:53 Cloudy 69 20.6 59 15 70 70 ENE 9 15 29.92 1013 10 16 0.00 0.00
11:53 am 11:53 Cloudy 70 21.1 59 15 68 68 NE 8 13 29.93 1013 10 16 0.00 0.00
12:53 pm 12:53 Cloudy 72 22.2 59 15 64 64 NNE 9 15 29.93 1013 10 16 0.00 0.00
1:53 pm 13:53 Cloudy 74 23.3 60 15.6 62 62 ENE 7 11 29.91 1013 10 16 0.00 0.00
2:53 pm 14:53 Cloudy 74 23.3 59 15 60 60 NE 8 13 29.90 1013 10 16 0.00 0.00
3:53 pm 15:53 Cloudy 76 24.4 60 15.6 58 58 NE 9 15 29.88 1012 10 16 0.00 0.00
4:53 pm 16:53 Cloudy 74 23.3 60 15.6 62 62 E 10 17 29.87 1012 10 16 0.00 0.00
5:53 pm 17:53 Cloudy 71 21.7 60 15.6 68 68 E 15 24 29.87 1012 10 16 0.00 0.00
6:53 pm 18:53 Cloudy 71 21.7 60 15.6 68 68 E 12 19 29.86 1011 9 14 0.00 0.00
7:53 pm 19:53 Cloudy 68 20 60 15.6 76 76 E 12 19 29.86 1011 10 16 0.00 0.00
8:53 pm 20:53 Cloudy 67 19.4 60 15.6 79 79 ENE 10 17 29.86 1011 10 16 0.00 0.00
9:53 pm 21:53 Cloudy 67 19.4 60 15.6 79 79 E 10 17 29.87 1011 10 16 0.00 0.00
10:04 pm 22:04 Cloudy 66 19 61 16 83 83 E 12 19 29.83 1010 10 16 0.00 0.00
10:53 pm 22:53 Cloudy 66 18.9 61 16.1 84 84 E 12 19 29.86 1011 10 16 0.00 0.00
11:53 pm 23:53 Cloudy 66 18.9 61 16.1 84 84 E 10 17 29.85 1011 10 16 0.00 0.00

Powered by AerisWeather